This is the latest recevied weather packets stored in our database for station/object W4OTS. If no packets are shown the sender has not sent any weather packets the latest 10 day(s).
| Time | Temp. | Humidity | Pressure | Rain* | Wind** | Luminosity | Snow |
|---|---|---|---|---|---|---|---|
| 1777799066 | 5.56° C | 84% | 1019.8 hPa | 0 mm | - | 0 W/m² | - |
| 1777798762 | 5.56° C | 82% | 1019.6 hPa | 0 mm | - | 0 W/m² | - |
| 1777798459 | 5.56° C | 81% | 1019.8 hPa | 0 mm | - | 0 W/m² | - |
| 1777798155 | 5.56° C | 83% | 1020 hPa | 0 mm | - | 0 W/m² | - |
| 1777797853 | 5° C | 86% | 1019.5 hPa | 0 mm | - | 0 W/m² | - |
| 1777797551 | 4.44° C | 88% | 1019.5 hPa | 0 mm | - | 0 W/m² | - |
| 1777797248 | 4.44° C | 90% | 1019.6 hPa | 0 mm | - | 0 W/m² | - |
| 1777796944 | 5° C | 89% | 1019.4 hPa | 0 mm | - | 0 W/m² | - |
| 1777796641 | 5° C | 88% | 1019.6 hPa | 0 mm | - | 0 W/m² | - |
| 1777796336 | 4.44° C | 89% | 1019.6 hPa | 0 mm | - | 0 W/m² | - |
| 1777796033 | 4.44° C | 89% | 1019.4 hPa | 0 mm | - | 0 W/m² | - |
| 1777795729 | 4.44° C | 89% | 1019.4 hPa | 0 mm | - | 0 W/m² | - |
| 1777795427 | 4.44° C | 88% | 1019.4 hPa | 0 mm | - | 0 W/m² | - |
| 1777795123 | 4.44° C | 87% | 1019.3 hPa | 0 mm | - | 0 W/m² | - |
| 1777794818 | 5° C | 86% | 1019.2 hPa | 0 mm | - | 0 W/m² | - |
| 1777794515 | 5° C | 86% | 1019.3 hPa | 0 mm | - | 0 W/m² | - |
| 1777794210 | 5.56° C | 86% | 1019.5 hPa | 0 mm | - | 0 W/m² | - |
| 1777793908 | 5.56° C | 86% | 1019.3 hPa | 0 mm | - | 0 W/m² | - |
| 1777793605 | 5.56° C | 83% | 1019 hPa | 0 mm | - | 0 W/m² | - |
| 1777793303 | 6.11° C | 80% | 1019.2 hPa | 0 mm | - | 0 W/m² | - |
| 1777793000 | 6.11° C | 79% | 1018.9 hPa | 0 mm | - | 0 W/m² | - |
| 1777792696 | 6.67° C | 77% | 1018.8 hPa | 0 mm | - | 0 W/m² | - |
| 1777792394 | 7.22° C | 78% | 1018.7 hPa | 0 mm | - | 0 W/m² | - |
| 1777792090 | 7.22° C | 79% | 1018.8 hPa | 0 mm | - | 0 W/m² | - |
| 1777791788 | 6.67° C | 75% | 1018.8 hPa | 0 mm | - | 0 W/m² | - |
* Rain latest hour (hover to see other rain measurements)
** Current wind speed in m/s (hover to see current wind gust speed)